Vancleve, KY

6:27 PM EST on January 16, 2017 (GMT -0500)
Carroll

Weather History for KJKL - October, 2013

Change the Weather History Date:

Sunday, October 13, 2013

  Actual Average Record
Temperature  
Mean Temperature 66 °F 59 °F  
Max Temperature 71 °F 69 °F 84 °F (1985)
Min Temperature 60 °F 49 °F 29 °F (2006)
Degree Days  
Heating Degree Days 0 7  
Month to date heating degree days 23 77  
Since 1 July heating degree days 53 129  
Cooling Degree Days 1 1  
Month to date cooling degree days 40 19  
Year to date cooling degree days 1066 1140  
Growing Degree Days 16 (Base 50)    
Moisture  
Dew Point 58 °F    
Average Humidity 78    
Maximum Humidity 90    
Minimum Humidity 66    
Precipitation  
Precipitation 0.00 in 0.10 in 1.66 in (1994)
Month to date precipitation 0.63 1.30  
Year to date precipitation 45.12 38.31  
Snow  
Snow 0.00 in 0.00 in - ()
Month to date snowfall 0.0 0.0  
Since 1 July snowfall 0.0 0.0  
Since 1 September snowfall 0.0 0.0  
Snow Depth 0.00 in    
Sea Level Pressure  
Sea Level Pressure 30.21 in    
Wind  
Wind Speed 0 mph (WNW)    
Max Wind Speed 7 mph    
Max Gust Speed 9 mph    
Visibility 10 miles    
Events      
T = Trace of Precipitation, MM = Missing Value Source: NWS Daily Summary

Daily Weather History Graph

Daily Weather History Graph

Search for Another Location

Airport or City:

Trip Planner

Search our weather history database for the weather conditions in past years. The results will help you decide how hot, cold, wet, or windy it might be!

Date:

Astronomy

Oct. 13, 2013 Rise Set
Actual Time 7:39 AM EDT 6:58 PM EDT
Civil Twilight 7:13 AM EDT 7:24 PM EDT
Nautical Twilight 6:43 AM EDT 7:55 PM EDT
Astronomical Twilight 6:12 AM EDT 8:25 PM EDT
Moon 3:43 PM EDT (10/13) 1:54 AM EDT (10/13)
Length of Visible Light 12h 11m
Length of Day
11h 18m
Waxing Gibbous, 69% of the Moon is Illuminated
Oct 13
Waxing Gibbous
Oct 18
Full
Oct 26
Last Quarter
Nov 3
New
Nov 10
First Quarter

Hourly Weather History & Observations

Time (EDT) Temp. Dew Point Humidity Pressure Visibility Wind Dir Wind Speed Gust Speed Precip Events Conditions
12:53 AM 60.1 °F 57.0 °F 90% 30.14 in 10.0 mi Calm Calm - N/A   Mostly Cloudy
1:53 AM 61.0 °F 57.9 °F 90% 30.14 in 10.0 mi Calm Calm - N/A   Overcast
2:53 AM 61.0 °F 57.0 °F 87% 30.14 in 10.0 mi Calm Calm - N/A   Overcast
3:53 AM 61.0 °F 57.9 °F 90% 30.14 in 10.0 mi Calm Calm - N/A   Overcast
4:53 AM 61.0 °F 57.9 °F 90% 30.14 in 10.0 mi Calm Calm - N/A   Overcast
5:53 AM 60.1 °F 57.9 °F 93% 30.16 in 10.0 mi Calm Calm - N/A   Overcast
6:53 AM 61.0 °F 57.9 °F 90% 30.18 in 10.0 mi Calm Calm - N/A   Overcast
7:53 AM 61.0 °F 57.9 °F 90% 30.19 in 10.0 mi Calm Calm - N/A   Overcast
8:53 AM 62.1 °F 57.9 °F 86% 30.21 in 9.0 mi Calm Calm - N/A   Mostly Cloudy
9:53 AM 63.0 °F 59.0 °F 87% 30.23 in 10.0 mi Calm Calm - N/A   Overcast
10:53 AM 66.0 °F 59.0 °F 78% 30.23 in 10.0 mi Calm Calm - N/A   Overcast
11:53 AM 69.1 °F 60.1 °F 73% 30.24 in 10.0 mi Calm Calm - N/A   Overcast
12:15 PM 69.8 °F 59.0 °F 68% 30.26 in 10.0 mi WNW 4.6 mph - N/A   Overcast
12:53 PM 69.1 °F 60.1 °F 73% 30.24 in 10.0 mi Variable 3.5 mph - N/A   Overcast
1:53 PM 70.0 °F 59.0 °F 68% 30.22 in 10.0 mi Calm Calm - N/A   Overcast
2:53 PM 71.1 °F 59.0 °F 66% 30.22 in 10.0 mi Calm Calm - N/A   Overcast
3:53 PM 71.1 °F 59.0 °F 66% 30.21 in 10.0 mi Calm Calm - N/A   Overcast
4:53 PM 70.0 °F 59.0 °F 68% 30.21 in 10.0 mi Calm Calm - N/A   Overcast
5:53 PM 69.1 °F 57.9 °F 68% 30.21 in 10.0 mi Calm Calm - N/A   Overcast
6:53 PM 66.9 °F 57.0 °F 70% 30.21 in 10.0 mi Calm Calm - N/A   Overcast
7:53 PM 66.9 °F 57.0 °F 70% 30.22 in 10.0 mi Calm Calm - N/A   Overcast
8:53 PM 66.0 °F 57.0 °F 73% 30.23 in 10.0 mi Calm Calm - N/A   Overcast
9:53 PM 64.9 °F 57.0 °F 75% 30.25 in 10.0 mi Calm Calm - N/A   Mostly Cloudy
10:53 PM 64.0 °F 57.9 °F 80% 30.25 in 10.0 mi Calm Calm - N/A   Overcast
11:34 PM 62.6 °F 57.2 °F 82% 30.28 in 10.0 mi Calm Calm - N/A   Overcast
11:53 PM 63.0 °F 57.9 °F 84% 30.25 in 10.0 mi Calm Calm - N/A   Overcast